This is the latest recevied weather packets stored in our database for station/object KK7MLS-13. If no packets are shown the sender has not sent any weather packets the latest 10 day(s).
| Time | Temp. | Humidity | Pressure | Rain* | Wind** | Luminosity | Snow |
|---|---|---|---|---|---|---|---|
| 1788373165 | 14.44° C | 91% | 1007.6 hPa | 1.78 mm | - | 65 W/m² | - |
| 1788372861 | 14.44° C | 90% | 1007.6 hPa | 1.78 mm | - | 57 W/m² | - |
| 1788372560 | 14.44° C | 90% | 1007.7 hPa | 1.78 mm | - | 61 W/m² | - |
| 1788372256 | 14.44° C | 89% | 1007.8 hPa | 1.27 mm | - | 56 W/m² | - |
| 1788371951 | 14.44° C | 90% | 1008 hPa | 1.27 mm | - | 57 W/m² | - |
| 1788371647 | 14.44° C | 89% | 1007.9 hPa | 1.78 mm | - | 51 W/m² | - |
| 1788371342 | 15° C | 88% | 1007.9 hPa | 3.05 mm | - | 53 W/m² | - |
| 1788371039 | 15° C | 88% | 1007.9 hPa | 3.05 mm | - | 32 W/m² | - |
| 1788370734 | 15° C | 87% | 1008 hPa | 1.78 mm | - | 37 W/m² | - |
| 1788370434 | 15° C | 86% | 1007.9 hPa | 1.27 mm | - | 39 W/m² | - |
| 1788370129 | 15.56° C | 84% | 1007.6 hPa | 1.27 mm | - | 43 W/m² | - |
| 1788369828 | 15.56° C | 83% | 1007.6 hPa | 1.78 mm | - | 43 W/m² | - |
| 1788369523 | 15.56° C | 81% | 1007.6 hPa | 0 mm | - | 43 W/m² | - |
| 1788369218 | 16.11° C | 79% | 1007.2 hPa | 1.27 mm | - | 44 W/m² | - |
| 1788368915 | 16.11° C | 76% | 1007.3 hPa | 1.27 mm | - | 44 W/m² | - |
| 1788368610 | 16.67° C | 75% | 1007.3 hPa | 0 mm | - | 42 W/m² | - |
| 1788368305 | 16.67° C | 73% | 1007.2 hPa | 0 mm | - | 57 W/m² | - |
| 1788368004 | 17.22° C | 70% | 1007.1 hPa | 0 mm | - | 54 W/m² | - |
| 1788367708 | 17.22° C | 69% | 1007.2 hPa | 0 mm | - | 53 W/m² | - |
| 1788367395 | 17.22° C | 68% | 1007.1 hPa | 0 mm | - | 58 W/m² | - |
| 1788367094 | 17.22° C | 67% | 1007.1 hPa | 0 mm | - | 64 W/m² | - |
| 1788366789 | 17.22° C | 67% | 1007 hPa | 0 mm | - | 60 W/m² | - |
| 1788366487 | 17.78° C | 67% | 1007.1 hPa | 0 mm | - | 47 W/m² | - |
| 1788366182 | 17.78° C | 67% | 1007.1 hPa | 0 mm | - | 47 W/m² | - |
| 1788365882 | 17.78° C | 68% | 1007.1 hPa | 0 mm | - | 62 W/m² | - |
* Rain latest hour (hover to see other rain measurements)
** Current wind speed in m/s (hover to see current wind gust speed)